Weather History for Wolf Creek Pass, CO

Change the Weather History Date:

Monday, December 9, 2013

  Actual Average (KALS) Record (KALS)
Temperature  
Mean Temperature -6 °F 19 °F  
Max Temperature 0 °F 36 °F 54 °F (1970)
Min Temperature -13 °F 2 °F -39 °F (1978)
Degree Days  
Heating Degree Days 72 46  
Month to date heating degree days 401  
Since 1 July heating degree days 2576  
Cooling Degree Days 0 0  
Month to date cooling degree days 0  
Year to date cooling degree days 51  
Moisture  
Dew Point -10 °F    
Average Humidity 86    
Maximum Humidity 92    
Minimum Humidity 77    
Precipitation  
Precipitation 0.00 in 0.02 in 1.03 in (1943)
Month to date precipitation 0.11  
Year to date precipitation 7.07  
Snow  
Snow 0.00 in 0.10 in 10.50 in (1943)
Month to date snowfall 1.3  
Since 1 July snowfall 7.1  
Snow Depth -    
Sea Level Pressure  
Sea Level Pressure 29.87 in    
Wind  
Wind Speed 14 mph (WSW)    
Max Wind Speed 24 mph    
Max Gust Speed 22 mph    
T = Trace of Precipitation, MM = Missing Value Source: NWS Daily Summary

Daily Weather History Graph

Daily Weather History Graph

Search for Another Location

Airport:

Trip Planner

Search our weather history database for the weather conditions in past years. The results will help you decide how hot, cold, wet, or windy it might be!

Date:

Astronomy

Dec. 09, 2013 Rise Set
Actual Time 7:10 AM MST 4:49 PM MST
Civil Twilight 6:41 AM MST 5:18 PM MST
Nautical Twilight 6:08 AM MST 5:50 PM MST
Astronomical Twilight 5:36 AM MST 6:22 PM MST
Moon 12:12 PM MST (12/9) No Moon Set
Length of Visible Light 10h 37m
Length of Day
9h 38m
First Quarter, 52% of the Moon is Illuminated
Dec 9
First Quarter
Dec 17
Full
Dec 25
Last Quarter
Jan 1
New
Jan 7
First Quarter

Hourly Weather History & Observations

Time (MST) Temp. Windchill Dew Point Humidity Pressure Visibility Wind Dir Wind Speed Gust Speed Precip Events Conditions
12:12 AM -11.2 °F - -14.8 °F 84% 29.68 in - North - - N/A   Unknown
12:32 AM -11.2 °F - -14.8 °F 84% 29.68 in - North - - N/A   Unknown
12:52 AM -11.2 °F - -14.8 °F 84% 29.68 in - North - - N/A   Unknown
1:12 AM -11.2 °F - -14.8 °F 84% 29.66 in - North - - N/A   Unknown
1:32 AM -11.2 °F - -14.8 °F 84% 29.66 in - North - - N/A   Unknown
1:52 AM -13.0 °F -41.1 °F -14.8 °F 92% 29.66 in - SW 24.2 mph - N/A   Unknown
2:12 AM -13.0 °F - -16.6 °F 84% 29.67 in - North - - N/A   Unknown
2:32 AM -13.0 °F - -16.6 °F 84% 29.68 in - North - - N/A   Unknown
2:52 AM -13.0 °F -40.0 °F -16.6 °F 84% 29.69 in - SW 21.9 mph - N/A   Unknown
3:12 AM -13.0 °F -40.0 °F -16.6 °F 84% 29.69 in - SW 21.9 mph - N/A   Unknown
3:32 AM -13.0 °F - -16.6 °F 84% 29.68 in - North - - N/A   Unknown
3:52 AM -13.0 °F - -16.6 °F 84% 29.69 in - North - - N/A   Unknown
4:12 AM -13.0 °F - -16.6 °F 84% 29.68 in - North - - N/A   Unknown
4:32 AM -13.0 °F - -16.6 °F 84% 29.68 in - North - - N/A   Unknown
4:52 AM -13.0 °F - -16.6 °F 84% 29.68 in - North - - N/A   Unknown
5:12 AM -13.0 °F - -16.6 °F 84% 29.68 in - North - - N/A   Unknown
5:32 AM -13.0 °F - -16.6 °F 84% 29.68 in - North - - N/A   Unknown
5:52 AM -13.0 °F -39.4 °F -16.6 °F 84% 29.69 in - SW 20.7 mph - N/A   Unknown
6:12 AM -13.0 °F - -16.6 °F 84% 29.69 in - North - - N/A   Unknown
6:32 AM -13.0 °F - -16.6 °F 84% 29.69 in - North - - N/A   Unknown
6:52 AM -13.0 °F - -16.6 °F 84% 29.71 in - North - - N/A   Unknown
7:12 AM -13.0 °F - -16.6 °F 84% 29.72 in - North - - N/A   Unknown
7:32 AM -13.0 °F -37.5 °F -16.6 °F 84% 29.72 in - SW 17.3 mph - N/A   Unknown
7:52 AM -13.0 °F -37.5 °F -16.6 °F 84% 29.73 in - SW 17.3 mph - N/A   Unknown
8:12 AM -13.0 °F -38.2 °F -16.6 °F 84% 29.74 in - SW 18.4 mph - N/A   Unknown
8:32 AM -11.2 °F -35.2 °F -14.8 °F 84% 29.75 in - SW 17.3 mph - N/A   Mostly Cloudy
8:52 AM -9.4 °F -30.6 °F -14.8 °F 77% 29.76 in - SW 13.8 mph - N/A   Unknown
9:12 AM -9.4 °F -31.4 °F -13.0 °F 84% 29.77 in - SW 15.0 mph 20.7 mph N/A   Unknown
9:32 AM -7.6 °F -30.5 °F -13.0 °F 77% 29.78 in - SW 17.3 mph - N/A   Mostly Cloudy
9:52 AM -7.6 °F -29.1 °F -11.2 °F 84% 29.79 in - SSW 15.0 mph - N/A   Mostly Cloudy
10:12 AM -7.6 °F -27.5 °F -9.4 °F 92% 29.80 in - SSW 12.7 mph 20.7 mph N/A   Unknown
10:32 AM -5.8 °F -23.4 °F -9.4 °F 84% 29.81 in - SSW 10.4 mph - N/A   Unknown
10:52 AM -5.8 °F -24.4 °F -9.4 °F 84% 29.82 in - SSW 11.5 mph 20.7 mph N/A   Unknown
11:12 AM -5.8 °F -23.4 °F -9.4 °F 84% 29.84 in - SSW 10.4 mph 16.1 mph N/A   Unknown
11:32 AM -5.8 °F -21.2 °F -9.4 °F 84% 29.84 in - SW 8.1 mph 18.4 mph N/A   Mostly Cloudy
11:52 AM -4.0 °F -19.0 °F -7.6 °F 85% 29.85 in - WSW 8.1 mph - N/A   Overcast
12:12 PM -4.0 °F -21.2 °F -7.6 °F 85% 29.85 in - SSW 10.4 mph - N/A   Unknown
12:32 PM -5.8 °F -21.2 °F -7.6 °F 92% 29.85 in - SW 8.1 mph - N/A   Mostly Cloudy
12:52 PM -4.0 °F -20.2 °F -7.6 °F 85% 29.86 in - WSW 9.2 mph - N/A   Overcast
1:12 PM -5.8 °F -19.9 °F -7.6 °F 92% 29.87 in - SW 6.9 mph - N/A   Unknown
1:32 PM -4.0 °F -20.2 °F -5.8 °F 92% 29.87 in - WSW 9.2 mph - N/A   Unknown
1:52 PM -4.0 °F -12.4 °F -5.8 °F 92% 29.89 in - SW 3.5 mph - N/A   Unknown
2:12 PM -2.2 °F -18.9 °F -5.8 °F 85% 29.91 in - West 10.4 mph 16.1 mph N/A   Unknown
2:32 PM -2.2 °F -14.2 °F -5.8 °F 85% 29.91 in - West 5.8 mph - N/A   Unknown
2:52 PM -2.2 °F -10.4 °F -5.8 °F 85% 29.93 in - West 3.5 mph - N/A   Unknown
3:12 PM -2.2 °F -12.5 °F -5.8 °F 85% 29.94 in - SW 4.6 mph - N/A   Unknown
3:32 PM -2.2 °F -14.2 °F -5.8 °F 85% 29.96 in - SW 5.8 mph - N/A   Unknown
3:52 PM -2.2 °F -14.2 °F -5.8 °F 85% 29.98 in - North 5.8 mph - N/A   Unknown
4:12 PM -2.2 °F -15.6 °F -5.8 °F 85% 29.99 in - NW 6.9 mph - N/A   Unknown
4:32 PM -2.2 °F -14.2 °F -5.8 °F 85% 30.01 in - NNW 5.8 mph - N/A   Unknown
4:52 PM -4.0 °F -19.0 °F -5.8 °F 92% 30.02 in - NW 8.1 mph - N/A   Unknown
5:12 PM -4.0 °F -16.3 °F -5.8 °F 92% 30.03 in - North 5.8 mph 17.3 mph N/A   Unknown
5:32 PM -2.2 °F -19.9 °F -5.8 °F 85% 30.03 in - NW 11.5 mph 17.3 mph N/A   Unknown
5:52 PM -2.2 °F -16.8 °F -5.8 °F 85% 30.04 in - WNW 8.1 mph - N/A   Unknown
6:12 PM -2.2 °F -16.8 °F -5.8 °F 85% 30.04 in - NW 8.1 mph - N/A   Unknown
6:32 PM -2.2 °F -18.0 °F -5.8 °F 85% 30.05 in - NW 9.2 mph - N/A   Unknown
6:52 PM -2.2 °F -18.0 °F -5.8 °F 85% 30.06 in - NW 9.2 mph - N/A   Unknown
7:12 PM -0.4 °F -16.7 °F -4.0 °F 85% 30.08 in - NNW 10.4 mph - N/A   Unknown
7:32 PM -0.4 °F -14.7 °F -4.0 °F 85% 30.08 in - NNW 8.1 mph - N/A   Unknown
7:48 PM -0.4 °F - -4.0 °F 85% 30.09 in - Calm Calm - N/A   Unknown
8:12 PM -0.4 °F -15.7 °F -4.0 °F 85% 30.10 in - WNW 9.2 mph - N/A   Unknown
8:32 PM -0.4 °F -17.6 °F -4.0 °F 85% 30.08 in - ENE 11.5 mph 21.9 mph N/A   Unknown
8:52 PM -0.4 °F -12.0 °F -4.0 °F 85% 30.09 in - NNW 5.8 mph - N/A   Unknown
9:12 PM -0.4 °F -19.2 °F -4.0 °F 85% 30.10 in - SW 13.8 mph - N/A   Unknown
9:32 PM -0.4 °F -13.4 °F -2.2 °F 92% 30.10 in - NNW 6.9 mph - N/A   Unknown
9:52 PM -0.4 °F -13.4 °F -2.2 °F 92% 30.11 in - WNW 6.9 mph - N/A   Unknown
10:11 PM -4.0 °F -20.2 °F -5.8 °F 92% 30.12 in - SW 9.2 mph - N/A   Unknown
10:32 PM -2.2 °F -20.7 °F -5.8 °F 85% 30.12 in - SSW 12.7 mph - N/A   Unknown
10:52 PM -0.4 °F -15.7 °F -4.0 °F 85% 30.13 in - SW 9.2 mph - N/A   Unknown
11:11 PM -0.4 °F -17.6 °F -4.0 °F 85% 30.14 in - SW 11.5 mph - N/A   Unknown
11:32 PM -0.4 °F -20.5 °F -4.0 °F 85% 30.14 in - SW 16.1 mph - N/A   Unknown
11:52 PM -0.4 °F -21.2 °F -2.2 °F 92% 30.14 in - SSW 17.3 mph - N/A   Mostly Cloudy